Hailey, ID

12:47 AM MDT on September 29, 2016 (GMT -0600)
Friedman Memorial

Weather History for KSUN - August, 2014

Change the Weather History Date:

Tuesday, August 26, 2014

  Actual Average Record
Temperature  
Mean Temperature 58 °F -  
Max Temperature 71 °F 78 °F 95 °F (2001)
Min Temperature 46 °F 48 °F 42 °F (2004)
Degree Days  
Heating Degree Days 6    
Growing Degree Days 8 (Base 50)    
Moisture  
Dew Point 46 °F    
Average Humidity 75    
Maximum Humidity 93    
Minimum Humidity 35    
Precipitation  
Precipitation 0.00 in - - ()
Sea Level Pressure  
Sea Level Pressure 30.20 in    
Wind  
Wind Speed 7 mph (NW)    
Max Wind Speed 12 mph    
Max Gust Speed -    
Visibility 10 miles    
Events      
Averages and records for this station are not official NWS values.
T = Trace of Precipitation, MM = Missing Value Source: NWS Daily Summary

Daily Weather History Graph

Daily Weather History Graph

Search for Another Location

Airport or City:

Trip Planner

Search our weather history database for the weather conditions in past years. The results will help you decide how hot, cold, wet, or windy it might be!

Date:

Astronomy

Aug. 26, 2014 Rise Set
Actual Time 6:54 AM MDT 8:22 PM MDT
Civil Twilight 6:24 AM MDT 8:52 PM MDT
Nautical Twilight 5:48 AM MDT 9:28 PM MDT
Astronomical Twilight 5:09 AM MDT 10:06 PM MDT
Moon 8:02 AM MDT (8/26) 8:41 PM MDT (8/26)
Length of Visible Light 14h 27m
Length of Day
13h 28m
New Moon, 1% of the Moon is Illuminated
Aug 26
New Moon
Sep 2
First Quarter
Sep 8
Full
Sep 15
Last Quarter
Sep 24
New

Hourly Weather History & Observations

Time (MDT) Temp. Windchill Dew Point Humidity Pressure Visibility Wind Dir Wind Speed Gust Speed Precip Events Conditions
12:15 AM 51.8 °F - 48.2 °F 88% 30.17 in 10.0 mi WNW 5.8 mph - N/A   Clear
12:35 AM 51.8 °F - 46.4 °F 82% 30.17 in 10.0 mi WNW 4.6 mph - N/A   Clear
12:55 AM 51.8 °F - 46.4 °F 82% 30.17 in 10.0 mi WNW 4.6 mph - N/A   Clear
1:15 AM 50.0 °F - 46.4 °F 87% 30.17 in 10.0 mi WNW 5.8 mph - N/A   Clear
1:35 AM 51.8 °F - 46.4 °F 82% 30.18 in 10.0 mi NW 6.9 mph - N/A   Scattered Clouds
1:55 AM 50.0 °F - 46.4 °F 87% 30.18 in 10.0 mi WNW 8.1 mph - N/A   Mostly Cloudy
2:15 AM 50.0 °F - 46.4 °F 87% 30.18 in 10.0 mi NW 6.9 mph - N/A   Scattered Clouds
2:35 AM 50.0 °F - 46.4 °F 87% 30.18 in 10.0 mi NW 9.2 mph - N/A   Clear
2:55 AM 50.0 °F - 46.4 °F 87% 30.17 in 10.0 mi NW 8.1 mph - N/A   Clear
3:15 AM 48.2 °F - 46.4 °F 93% 30.18 in 10.0 mi NW 8.1 mph - N/A   Clear
3:35 AM 48.2 °F - 44.6 °F 87% 30.18 in 10.0 mi WNW 8.1 mph - N/A   Clear
3:55 AM 48.2 °F - 44.6 °F 87% 30.18 in 10.0 mi NW 9.2 mph - N/A   Clear
4:15 AM 48.2 °F - 44.6 °F 87% 30.19 in 10.0 mi NW 6.9 mph - N/A   Clear
4:35 AM 48.2 °F - 44.6 °F 87% 30.19 in 10.0 mi NW 8.1 mph - N/A   Clear
4:55 AM 48.2 °F - 44.6 °F 87% 30.20 in 10.0 mi NW 6.9 mph - N/A   Clear
5:15 AM 46.4 °F 41.5 °F 44.6 °F 93% 30.20 in 10.0 mi NW 10.4 mph - N/A   Clear
5:35 AM 46.4 °F 42.4 °F 44.6 °F 93% 30.21 in 10.0 mi NW 8.1 mph - N/A   Clear
5:55 AM 46.4 °F 42.4 °F 42.8 °F 87% 30.20 in 10.0 mi NNW 8.1 mph - N/A   Clear
6:15 AM 46.4 °F 41.9 °F 42.8 °F 87% 30.21 in 10.0 mi NW 9.2 mph - N/A   Clear
6:35 AM 46.4 °F 41.5 °F 42.8 °F 87% 30.22 in 10.0 mi NW 10.4 mph - N/A   Clear
6:50 AM 46.4 °F 41.9 °F 44.6 °F 93% 30.22 in 10.0 mi WNW 9.2 mph - N/A   Partly Cloudy
7:47 AM 46.4 °F 41.9 °F 44.6 °F 93% 30.24 in 10.0 mi NW 9.2 mph - N/A   Partly Cloudy
8:47 AM 51.8 °F - 44.6 °F 76% 30.24 in 10.0 mi WNW 11.5 mph - N/A   Partly Cloudy
9:47 AM 57.2 °F - 46.4 °F 67% 30.24 in 10.0 mi NW 8.1 mph - N/A   Partly Cloudy
11:47 AM 66.2 °F - 44.6 °F 46% 30.23 in 10.0 mi Calm Calm - N/A   Scattered Clouds
12:47 PM 68.0 °F - 50.0 °F 52% 30.23 in 10.0 mi ESE 8.1 mph - N/A   Scattered Clouds
1:47 PM 69.8 °F - 50.0 °F 49% 30.23 in 10.0 mi ESE 10.4 mph - N/A   Scattered Clouds
2:47 PM 69.8 °F - 51.8 °F 53% 30.22 in 10.0 mi ESE 10.4 mph - N/A   Scattered Clouds
3:47 PM 69.8 °F - 46.4 °F 43% 30.20 in 10.0 mi ESE 10.4 mph - N/A   Scattered Clouds
4:47 PM 71.6 °F - 42.8 °F 35% 30.19 in 10.0 mi ESE 5.8 mph - N/A   Partly Cloudy
5:47 PM 71.6 °F - 44.6 °F 38% 30.18 in 10.0 mi ESE 9.2 mph - N/A   Partly Cloudy
6:50 PM 69.8 °F - 48.2 °F 46% 30.17 in 10.0 mi SE 6.9 mph - N/A   Partly Cloudy
7:47 PM 64.4 °F - 46.4 °F 52% 30.18 in 10.0 mi ESE 6.9 mph - N/A   Partly Cloudy
8:47 PM 57.2 °F - 48.2 °F 72% 30.19 in 10.0 mi Calm Calm - N/A   Partly Cloudy
9:47 PM 53.6 °F - 46.4 °F 77% 30.22 in 10.0 mi NW 9.2 mph - N/A   Partly Cloudy
10:47 PM 55.4 °F - 46.4 °F 72% 30.23 in 10.0 mi Calm Calm - N/A   Partly Cloudy
11:15 PM 55.4 °F - 44.6 °F 67% 30.24 in 10.0 mi NW 8.1 mph - N/A   Clear
11:35 PM 53.6 °F - 44.6 °F 72% 30.24 in 10.0 mi WNW 8.1 mph - N/A   Clear
11:55 PM 53.6 °F - 44.6 °F 72% 30.24 in 10.0 mi NW 6.9 mph - N/A   Clear